• In Österreich
  • Länderverzeichnis
  • Für 7 Tage
  • Wassertemperatur
  • Satellitenkarten
  • Wetterkarte
  • News
  • Widgets
  • user-avatar
    Anmelden

    Stündliche Wetter Ischgl

    Heute, 22 Oktober, Montag

    Zeit Temperatur Niederschläge Wind Luftdruck Luftfeuchtigkeit
    00:00 -3°C° 0 mm 1 m/S 576 mmHg 62%
    01:00 -2°C° 0 mm 1 m/S 576 mmHg 53%
    02:00 -2°C° 0 mm 1 m/S 576 mmHg 51%
    03:00 -2°C° 0 mm 1 m/S 575 mmHg 49%
    04:00 -2°C° 0 mm 1 m/S 575 mmHg 46%
    05:00 -2°C° 0 mm 1 m/S 575 mmHg 46%
    06:00 -2°C° 0 mm 1 m/S 576 mmHg 45%
    07:00 -4°C° 0 mm 2 m/S 576 mmHg 44%
    08:00 -2°C° 0 mm 2 m/S 577 mmHg 39%
    09:00 +2°C° 0 mm 2 m/S 578 mmHg 35%
    10:00 +4°C° 0 mm 2 m/S 579 mmHg 31%
    11:00 +5°C° 0 mm 2 m/S 579 mmHg 32%
    12:00 +5°C° 0 mm 2 m/S 580 mmHg 33%
    13:00 +5°C° 0 mm 3 m/S 580 mmHg 34%
    14:00 +4°C° 0 mm 3 m/S 580 mmHg 40%
    15:00 +3°C° 0 mm 3 m/S 579 mmHg 46%
    16:00 +2°C° 0 mm 3 m/S 579 mmHg 52%
    17:00 +1°C° 0 mm 2 m/S 578 mmHg 63%
    18:00 -2°C° 0 mm 2 m/S 577 mmHg 75%
    19:00 -4°C° 0 mm 2 m/S 577 mmHg 86%
    20:00 -4°C° 0 mm 2 m/S 577 mmHg 86%
    21:00 -4°C° 0 mm 2 m/S 577 mmHg 87%
    22:00 -5°C° 0 mm 2 m/S 578 mmHg 88%
    23:00 -5°C° 0 mm 2 m/S 578 mmHg 86%

    Morgen, 23 Oktober, Dienstag

    Zeit Temperatur Niederschläge Wind Luftdruck Luftfeuchtigkeit
    00:00 -5°C° 0 mm 2 m/S 578 mmHg 85%
    01:00 -5°C° 0 mm 2 m/S 578 mmHg 83%
    02:00 -3°C° 0 mm 1 m/S 578 mmHg 81%
    03:00 -3°C° 0 mm 1 m/S 577 mmHg 78%
    04:00 -2°C° 0 mm 1 m/S 577 mmHg 75%
    05:00 -3°C° 0 mm 1 m/S 577 mmHg 76%
    06:00 -3°C° 0 mm 1 m/S 577 mmHg 76%
    07:00 -3°C° 0 mm 1 m/S 577 mmHg 77%
    08:00 -2°C° 0 mm 2 m/S 579 mmHg 68%
    09:00 +1°C° 0 mm 2 m/S 580 mmHg 59%
    10:00 +4°C° 0 mm 2 m/S 581 mmHg 50%
    11:00 +4°C° 0 mm 2 m/S 581 mmHg 47%
    12:00 +4°C° 0 mm 3 m/S 581 mmHg 43%
    13:00 +5°C° 0 mm 3 m/S 581 mmHg 40%
    14:00 +5°C° 0 mm 3 m/S 580 mmHg 44%
    15:00 +4°C° 0 mm 3 m/S 580 mmHg 47%
    16:00 +3°C° 0 mm 3 m/S 579 mmHg 51%
    17:00 +2°C° 0 mm 2 m/S 579 mmHg 60%
    18:00 -1°C° 0 mm 2 m/S 578 mmHg 70%
    19:00 -2°C° 0 mm 2 m/S 577 mmHg 79%
    20:00 -2°C° 0 mm 2 m/S 577 mmHg 75%
    21:00 -2°C° 0 mm 2 m/S 578 mmHg 71%
    22:00 -1°C° 0 mm 2 m/S 578 mmHg 68%
    23:00 -1°C° 0 mm 2 m/S 578 mmHg 66%

    übermorgen, 24 Oktober, Mittwoch

    Zeit Temperatur Niederschläge Wind Luftdruck Luftfeuchtigkeit
    00:00 -1°C° 0 mm 2 m/S 577 mmHg 64%
    01:00 -1°C° 0 mm 2 m/S 577 mmHg 63%
    02:00 -2°C° 0 mm 2 m/S 577 mmHg 64%
    03:00 -2°C° 0 mm 2 m/S 577 mmHg 65%
    04:00 -2°C° 0 mm 2 m/S 577 mmHg 66%
    05:00 -2°C° 0.1 mm 2 m/S 577 mmHg 71%
    06:00 -1°C° 0.1 mm 2 m/S 576 mmHg 76%
    07:00 -1°C° 0.1 mm 2 m/S 576 mmHg 81%
    08:00 0°C° 0.1 mm 3 m/S 577 mmHg 82%
    09:00 0°C° 0.1 mm 3 m/S 577 mmHg 83%
    10:00 +1°C° 0.1 mm 3 m/S 577 mmHg 84%
    11:00 +1°C° 0.2 mm 3 m/S 577 mmHg 84%
    12:00 +2°C° 0.2 mm 3 m/S 577 mmHg 84%
    13:00 +2°C° 0.2 mm 3 m/S 577 mmHg 85%
    14:00 +2°C° 0.2 mm 3 m/S 577 mmHg 86%
    15:00 +2°C° 0.2 mm 3 m/S 577 mmHg 88%
    16:00 +1°C° 0.2 mm 3 m/S 577 mmHg 90%
    17:00 +1°C° 0.1 mm 3 m/S 577 mmHg 92%
    18:00 0°C° 0.1 mm 3 m/S 577 mmHg 94%
    19:00 0°C° 0.1 mm 3 m/S 577 mmHg 96%
    20:00 +1°C° 0 mm 2 m/S 577 mmHg 96%
    21:00 +1°C° 0 mm 2 m/S 577 mmHg 96%
    22:00 -1°C° 0 mm 2 m/S 577 mmHg 96%
    23:00 -1°C° 0 mm 2 m/S 577 mmHg 96%

    25 Oktober, Donnerstag

    Zeit Temperatur Niederschläge Wind Luftdruck Luftfeuchtigkeit
    00:00 -1°C° 0 mm 2 m/S 577 mmHg 96%
    01:00 +1°C° 0 mm 1 m/S 576 mmHg 96%
    02:00 0°C° 0 mm 1 m/S 576 mmHg 95%
    03:00 -1°C° 0 mm 1 m/S 575 mmHg 95%
    04:00 -1°C° 0 mm 1 m/S 575 mmHg 94%
    05:00 -1°C° 0 mm 1 m/S 575 mmHg 90%
    06:00 -1°C° 0 mm 1 m/S 574 mmHg 85%
    07:00 -2°C° 0 mm 1 m/S 574 mmHg 81%
    08:00 +1°C° 0 mm 1 m/S 575 mmHg 70%
    09:00 +4°C° 0 mm 1 m/S 577 mmHg 58%
    10:00 +7°C° 0 mm 1 m/S 578 mmHg 47%
    11:00 +8°C° 0 mm 1 m/S 578 mmHg 43%
    12:00 +9°C° 0 mm 1 m/S 578 mmHg 39%
    13:00 +9°C° 0 mm 2 m/S 578 mmHg 35%
    14:00 +9°C° 0 mm 1 m/S 578 mmHg 41%
    15:00 +8°C° 0 mm 1 m/S 577 mmHg 48%
    16:00 +7°C° 0 mm 1 m/S 576 mmHg 55%
    17:00 +5°C° 0 mm 1 m/S 575 mmHg 62%
    18:00 +3°C° 0 mm 1 m/S 574 mmHg 69%
    19:00 0°C° 0 mm 1 m/S 573 mmHg 75%
    20:00 0°C° 0 mm 1 m/S 573 mmHg 71%
    21:00 0°C° 0 mm 1 m/S 573 mmHg 67%
    22:00 0°C° 0 mm 1 m/S 573 mmHg 63%
    23:00 0°C° 0 mm 1 m/S 572 mmHg 58%

    26 Oktober, Freitag

    Zeit Temperatur Niederschläge Wind Luftdruck Luftfeuchtigkeit
    00:00 0°C° 0 mm 1 m/S 572 mmHg 53%
    01:00 0°C° 0 mm 1 m/S 572 mmHg 47%
    02:00 0°C° 0 mm 1 m/S 572 mmHg 46%
    03:00 -2°C° 0 mm 2 m/S 571 mmHg 44%
    04:00 -2°C° 0 mm 2 m/S 571 mmHg 42%
    05:00 -2°C° 0 mm 2 m/S 571 mmHg 44%
    06:00 -2°C° 0 mm 2 m/S 571 mmHg 46%
    07:00 -2°C° 0 mm 2 m/S 571 mmHg 48%
    08:00 +1°C° 0 mm 2 m/S 571 mmHg 46%
    09:00 +4°C° 0 mm 2 m/S 572 mmHg 44%
    10:00 +6°C° 0 mm 2 m/S 573 mmHg 43%
    11:00 +7°C° 0 mm 2 m/S 573 mmHg 43%
    12:00 +7°C° 0 mm 2 m/S 573 mmHg 43%
    13:00 +8°C° 0 mm 2 m/S 573 mmHg 43%
    14:00 +7°C° 0 mm 2 m/S 572 mmHg 51%
    15:00 +6°C° 0 mm 2 m/S 572 mmHg 59%
    16:00 +5°C° 0 mm 2 m/S 571 mmHg 67%
    17:00 +4°C° 0 mm 2 m/S 570 mmHg 72%
    18:00 +3°C° 0 mm 2 m/S 570 mmHg 77%
    19:00 +1°C° 0 mm 2 m/S 569 mmHg 83%
    20:00 +1°C° 0.1 mm 2 m/S 569 mmHg 83%
    21:00 +1°C° 0.1 mm 2 m/S 569 mmHg 84%
    22:00 +1°C° 0.1 mm 2 m/S 569 mmHg 85%
    23:00 +1°C° 0.1 mm 2 m/S 568 mmHg 86%

    27 Oktober, Samstag

    Zeit Temperatur Niederschläge Wind Luftdruck Luftfeuchtigkeit
    00:00 +1°C° 0.1 mm 2 m/S 568 mmHg 87%
    01:00 -1°C° 0.1 mm 2 m/S 567 mmHg 89%
    02:00 -1°C° 0.7 mm 2 m/S 566 mmHg 89%
    03:00 -1°C° 0.7 mm 2 m/S 566 mmHg 90%
    04:00 -1°C° 0.7 mm 2 m/S 565 mmHg 91%
    05:00 -1°C° 1.3 mm 2 m/S 565 mmHg 91%
    06:00 -1°C° 1.3 mm 2 m/S 564 mmHg 92%
    07:00 -1°C° 1.3 mm 2 m/S 564 mmHg 93%
    08:00 -1°C° 2.1 mm 2 m/S 564 mmHg 94%
    09:00 -1°C° 2.1 mm 3 m/S 564 mmHg 95%
    10:00 -1°C° 2.1 mm 3 m/S 564 mmHg 95%
    11:00 -1°C° 2.5 mm 3 m/S 563 mmHg 96%
    12:00 -2°C° 2.5 mm 3 m/S 563 mmHg 96%
    13:00 -4°C° 2.5 mm 3 m/S 562 mmHg 96%
    14:00 -3°C° 3.1 mm 2 m/S 562 mmHg 96%
    15:00 -4°C° 3.1 mm 2 m/S 561 mmHg 97%
    16:00 -5°C° 3.1 mm 2 m/S 560 mmHg 97%
    17:00 -6°C° 3.3 mm 2 m/S 560 mmHg 97%
    18:00 -7°C° 3.3 mm 2 m/S 560 mmHg 97%
    19:00 -7°C° 3.3 mm 2 m/S 559 mmHg 97%
    20:00 -8°C° 1.9 mm 2 m/S 559 mmHg 97%
    21:00 -8°C° 1.9 mm 2 m/S 559 mmHg 97%
    22:00 -7°C° 1.9 mm 1 m/S 559 mmHg 97%
    23:00 -8°C° 0.4 mm 1 m/S 560 mmHg 97%

    28 Oktober, Sonntag

    Zeit Temperatur Niederschläge Wind Luftdruck Luftfeuchtigkeit
    00:00 -8°C° 0.4 mm 1 m/S 560 mmHg 97%
    01:00 -8°C° 0.4 mm 1 m/S 560 mmHg 96%
    02:00 -8°C° 0.2 mm 1 m/S 560 mmHg 96%
    03:00 -8°C° 0.2 mm 1 m/S 560 mmHg 96%
    04:00 -8°C° 0.2 mm 1 m/S 560 mmHg 96%
    05:00 -9°C° 0.2 mm 1 m/S 560 mmHg 96%
    06:00 -9°C° 0.2 mm 1 m/S 560 mmHg 96%
    07:00 -9°C° 0.2 mm 1 m/S 561 mmHg 96%
    08:00 -8°C° 0.1 mm 1 m/S 562 mmHg 93%
    09:00 -7°C° 0.1 mm 1 m/S 563 mmHg 90%
    10:00 -6°C° 0.1 mm 1 m/S 564 mmHg 86%
    11:00 -4°C° 0.1 mm 1 m/S 564 mmHg 86%
    12:00 -4°C° 0.1 mm 1 m/S 565 mmHg 85%
    13:00 -5°C° 0.1 mm 2 m/S 565 mmHg 84%
    14:00 -5°C° 0.1 mm 2 m/S 565 mmHg 86%
    15:00 -3°C° 0.1 mm 1 m/S 565 mmHg 88%
    16:00 -4°C° 0.1 mm 1 m/S 565 mmHg 90%
    17:00 -6°C° 0.1 mm 1 m/S 565 mmHg 91%
    18:00 -7°C° 0.1 mm 1 m/S 564 mmHg 92%
    19:00 -8°C° 0.1 mm 1 m/S 564 mmHg 94%
    20:00 -9°C° 0 mm 1 m/S 564 mmHg 93%
    21:00 -10°C° 0 mm 2 m/S 564 mmHg 92%
    22:00 -12°C° 0 mm 2 m/S 563 mmHg 91%
    23:00 -10°C° 0 mm 2 m/S 563 mmHg 91%
    Mehr zeigen